Regional Weather Roundup
Issued by NWS

Home | Current Version | Previous Version | Graphics & Text | Print | Product List | Glossary Off
Versions: 1 2 3 4 5 6 7 8 9 10 11 12 13 14 15 16 17 18 19 20 21 22 23 24 25 26 27 28 29 30 31 32 33 34 35 36 37 38 39 40 41 42 43 44 45 46 47 48 49 50

000
ASUS43 KMKX 302321
RWRWI

WISCONSIN REGIONAL WEATHER ROUNDUP
NATIONAL WEATHER SERVICE MILWAUKEE/SULLIVAN WI
600 PM CDT TUE AUG 30 2016

NOTE: "FAIR" INDICATES FEW OR NO CLOUDS BELOW 12,000 FEET WITH NO
SIGNIFICANT WEATHER AND/OR OBSTRUCTIONS TO VISIBILITY.

WIZ001-002-006>008-014>016-023>028-310000-
NORTHWEST WISCONSIN

CITY           SKY/WX    TMP DP  RH WIND       PRES   REMARKS
SUPERIOR ARPT  SUNNY     74  51  43 NW10      30.13S
ASHLAND        SUNNY     74  54  49 NW7       30.13F
HAYWARD        SUNNY     75  53  46 N8        30.14F
SIREN          SUNNY     75  51  41 NW7       30.15S
CUMBERLAND     SUNNY     72  50  46 NW9       30.15S
RICE LAKE      SUNNY     74  56  52 NW7       30.15S
CHETEK         NOT AVBL
LADYSMITH      SUNNY     75  55  49 NW9       30.15R
EAU CLAIRE     CLOUDY    77  61  57 NW9       30.11S
MENOMONIE      SUNNY     76  58  52 NW10      30.12F
NEW RICHMOND   SUNNY     75  53  45 NW8       30.15S
OSCEOLA        SUNNY     76  56  49 NW6       30.17S
$$

WIZ003>005-009-010-017-018-310000-
NORTH CENTRAL WISCONSIN

CITY           SKY/WX    TMP DP  RH WIND       PRES   REMARKS
MANITOWISH WTR NOT AVBL
ARBOR VITAE    SUNNY     72  55  54 N10G16    30.13R
WOODRUFF       SUNNY     72  55  54 N10G16    30.13R
RHINELANDER    MOSUNNY   75  58  55 NW6       30.12S
EAGLE RIVER    CLOUDY    73  51  46 NW8       30.12R
LAND O LAKES   SUNNY     72  53  51 N10       30.13S
PHILLIPS       SUNNY     73  56  56 NW7       30.12S
TOMAHAWK       CLOUDY    74  57  55 NW5       30.12S
MEDFORD        MOSUNNY   73  62  66 NW10      30.11S
MERRILL        MOSUNNY   76  60  58 N8        30.11R
$$

WIZ029-030-035-036-043>047-310000-
CENTRAL WISCONSIN

CITY           SKY/WX    TMP DP  RH WIND       PRES   REMARKS
WAUSAU         MOSUNNY   77  62  59 N9        30.08R
MOSINEE        MOSUNNY   75  63  64 NW8       30.10R
MARSHFIELD     SUNNY     77  61  57 NW8       30.10R
STEVENS POINT  MOSUNNY   78  64  61 NW7       30.08R
WAUPACA        MOSUNNY   85  64  49 W6        30.05S HX  86
WAUTOMA        PTSUNNY   81  65  58 W8        30.06S HX  83
WISC RAPIDS    CLOUDY    81  66  60 N12       30.09R HX  83
CAMP DOUGLAS   PTSUNNY   79  68  69 W7        30.08S HX  81
$$

WIZ011>013-019>022-031-037>040-048>050-310000-
NORTHEAST WISCONSIN

CITY           SKY/WX    TMP DP  RH WIND       PRES   REMARKS
ANTIGO         MOSUNNY   73  62  67 NW9       30.10R
SHAWANO        PTSUNNY   81  67  63 NW3       30.05R HX  83
OCONTO         NOT AVBL
STURGEON BAY   PTSUNNY   81  69  67 NW3       30.03S HX  84
GREEN BAY      MOSUNNY   83  67  58 W8        30.02S HX  85
MANITOWOC      MOSUNNY   82  68  62 VRB3      30.03S HX  85
APPLETON       PTSUNNY   82  61  47 W7        30.04S HX  83
CLINTONVILLE   MOSUNNY   79  64  61 N6        30.04S HX  81
OSHKOSH        CLOUDY    81  65  58 W5        30.04F HX  83
$$

WIZ032>034-041-042-053>061-310000-
SOUTHWEST WISCONSIN

CITY           SKY/WX    TMP DP  RH WIND       PRES   REMARKS
LA CROSSE      PTSUNNY   82  67  60 NW9       30.08S HX  84
SPARTA         MOSUNNY   80  65  62 NW8       30.09S HX  81
VIROQUA        PTSUNNY   77  66  68 NW5       30.11S
BOSCOBEL       CLOUDY    80  69  69 NW5       30.08S HX  83
PRAIRIE DU CHI CLOUDY    79  66  63 N3        30.07S HX  81
PLATTEVILLE    PTSUNNY   79  73  80 NW6       30.09S HX  82
$$

WIZ056-057-062-063-064-067-068-310000-
SOUTH CENTRAL WISCONSIN

CITY           SKY/WX    TMP DP  RH WIND       PRES   REMARKS
REEDSBURG      NOT AVBL
BARABOO/DELLS  CLOUDY    78  65  63 NW3       30.08S HX  80
LONE ROCK      MOSUNNY   80  69  69 NW5       30.08S HX  83
MINERAL POINT  CLOUDY    81  70  69 NW5       30.09F HX  84
MADISON        CLOUDY    81  71  71 CALM      30.06F HX  85
MIDDLETON      MOSUNNY   80  71  72 W3        30.08S HX  84
WATERTOWN      CLOUDY    77  72  83 S7        30.06F
MONROE         CLOUDY    72  68  88 W5        30.08F
JANESVILLE     CLOUDY    72  72 100 CALM      30.08
$$

WIZ051-052-058>065-066-070>072-310000-
SOUTHEAST WISCONSIN

CITY           SKY/WX    TMP DP  RH WIND       PRES   REMARKS
MILWAUKEE      CLOUDY    76  71  85 SW7       30.04F
WAUKESHA       MOSUNNY   73  66  78 SW7       30.06F
MILWAUKEE/TIMM SUNNY     75  64  69 W6        30.05F
RACINE         CLOUDY    73  70  90 W7        30.06F
BURLINGTON     CLOUDY    69  68  96 SW6       30.05F
KENOSHA        CLOUDY    72  70  93 W5        30.05F
FOND DU LAC    CLOUDY    82  65  56 W5        30.05F HX  84
SHEBOYGAN      MOSUNNY   79  67  66 W6        30.03F HX  81
WEST BEND      CLOUDY    77  68  73 W6        30.04F
JUNEAU         MOSUNNY   79  66  65 W3        30.07S HX  81
$$

LSZ147-162-310000-
LAKE SUPERIOR

STATION/POSITION TIME  TEMP    WIND        PRES    WAVE
                       AIR SEA DIR/SP/G            HT/PER
                 (UTC) (F)     (DEG/KT/KT) (MB)    (FT/S)
W MID LAKE BUOY  2250   69 68  240/ 12/ 14 1018.9F   1/ 2
DEVILS ISLAND    2300   70     240/  8/  9 1019.7F
PORT WING        2100   74     250/  7/ 11 1020.3F
SAXON HARBOR     2240   78      CALM  /  2 1020.0F
$$

LMZ867-665-643>646-310000-
LAKE MICHIGAN

STATION/POSITION TIME  TEMP    WIND        PRES    WAVE
                       AIR SEA DIR/SP/G            HT/PER
                 (UTC) (F)     (DEG/KT/KT) (MB)    (FT/S)
CHAMBERS ISLAND  2200   79     210/  2/  5 1015.9F
S GREEN BAY BUOY 2200   77 76   20/  6/  6 1016.2S
N MID LAKE BUOY  2250   73 73  230/  6/  8 1015.9R   1
NORTHPORT PIER   2200   78      20/  2/  4 1016.3S
SISTER BAY       2207   79     300/  8/  9   N/A
ALGOMA LAKESHORE 2215          220/  7/  9   N/A
KEWAUNEE LAKESHO 2200   71     180/  8/ 10 1016.2F
SHEBOYGAN LAKESH 2300   76     210/  3/  4 1016.0F
PORT WASHINGTON  2200   79     270/  6/ 10 1017.9
ATWATER BUOY     2300   72     240/  2/  4   N/A
MILWAUKEE LAKESH 2310   76     250/  5/  6   N/A
S MID LAKE BUOY  2250   74 76  230/ 10/ 12 1016.3F   1/ 3
KENOSHA   LAKESH 2300   73     270/  6/  9 1016.9F
$$

TC  - TEMPERATURE IN CELSIUS
VSB - VISIBILITY IN STATUTE MILES
WCI - WIND CHILL INDEX
HX  - HEAT INDEX





USA.gov is the U.S. government's official web portal to all federal, state and local government web resources and services.